User: anonymous   Login
Location: Newark
(25.0000°N, 73.5000°E)
Time: 08:38:32
(UTC+00:00)
Language:

Tiangong - Orbit

View from above orbital plane
View from above orbital plane
View from above satellite
View from above satellite

Ground track
Ground track

The orbit data is extracted from the following two-line orbital elements,

1 48274U 21035A   21209.23089406  .00008055  00000-0  90707-4 0  9997
2 48274  41.4703  32.6882 0009015 252.2117 276.3456 15.62725776 14118
Epoch (UTC): 28 July 2021 05:32:29
Eccentricity: 0.0009015
inclination: 41.4703°
perigee height: 374 km
apogee height: 386 km
right ascension of ascending node: 32.6882°
argument of perigee: 252.2117°
revolutions per day: 15.62725776
mean anomaly at epoch: 276.3456°
orbit number at epoch: 1411

The dashed part of the orbit path shows where the satellite is in the earth's shadow,  

DLR